TimePDT,TemperatureF,Dew PointF,Humidity,Sea Level PressureIn,VisibilityMPH,Wind Direction,Wind SpeedMPH,Gust SpeedMPH,PrecipitationIn,Events,Conditions,WindDirDegrees,DateUTC
12:55 AM,45.0,32.0,60,30.15,10.0,NNE,5.8,-,N/A,,Clear,30,2012-10-17 07:55:00
1:55 AM,43.0,30.0,60,30.18,10.0,WSW,5.8,-,N/A,,Clear,240,2012-10-17 08:55:00
2:55 AM,44.1,30.0,58,30.19,10.0,NW,3.5,-,N/A,,Clear,310,2012-10-17 09:55:00
3:55 AM,44.1,28.9,55,30.19,10.0,Calm,Calm,-,N/A,,Clear,0,2012-10-17 10:55:00
4:55 AM,39.9,30.0,68,30.20,10.0,NNE,5.8,-,N/A,,Clear,30,2012-10-17 11:55:00
5:55 AM,41.0,28.9,62,30.21,10.0,Variable,3.5,-,N/A,,Clear,0,2012-10-17 12:55:00
6:55 AM,42.1,30.0,62,30.22,10.0,NW,11.5,-,N/A,,Clear,310,2012-10-17 13:55:00
7:55 AM,45.0,30.0,56,30.22,10.0,NW,9.2,-,N/A,,Clear,310,2012-10-17 14:55:00
8:55 AM,48.0,30.9,52,30.25,10.0,NNW,4.6,-,N/A,,Clear,330,2012-10-17 15:55:00
9:55 AM,51.1,30.0,44,30.25,10.0,NW,8.1,-,N/A,,Clear,310,2012-10-17 16:55:00
10:55 AM,53.1,30.0,41,30.28,10.0,NW,9.2,-,N/A,,Clear,320,2012-10-17 17:55:00
11:55 AM,54.0,30.0,40,30.26,10.0,WNW,9.2,-,N/A,,Clear,300,2012-10-17 18:55:00
12:55 PM,55.9,28.9,36,30.24,10.0,WNW,9.2,-,N/A,,Clear,290,2012-10-17 19:55:00
1:55 PM,57.0,27.0,32,30.23,10.0,Variable,5.8,-,N/A,,Clear,0,2012-10-17 20:55:00
2:55 PM,60.1,28.0,30,30.21,10.0,NE,3.5,-,N/A,,Clear,40,2012-10-17 21:55:00
3:55 PM,59.0,27.0,29,30.21,10.0,ESE,5.8,-,N/A,,Clear,120,2012-10-17 22:55:00
4:55 PM,59.0,28.0,31,30.21,10.0,ESE,6.9,-,N/A,,Overcast,120,2012-10-17 23:55:00
5:55 PM,57.0,28.0,33,30.21,10.0,SE,9.2,-,N/A,,Clear,130,2012-10-18 00:55:00
6:55 PM,54.0,30.0,40,30.22,10.0,East,5.8,-,N/A,,Clear,100,2012-10-18 01:55:00
7:55 PM,54.0,30.9,41,30.23,10.0,East,4.6,-,N/A,,Partly Cloudy,100,2012-10-18 02:55:00
8:55 PM,54.0,32.0,43,30.23,10.0,ESE,4.6,-,N/A,,Overcast,110,2012-10-18 03:55:00
9:55 PM,52.0,32.0,47,30.23,10.0,East,4.6,-,N/A,,Overcast,100,2012-10-18 04:55:00
10:55 PM,48.9,34.0,56,30.23,10.0,East,6.9,-,N/A,,Scattered Clouds,100,2012-10-18 05:55:00
11:55 PM,45.0,34.0,65,30.23,10.0,East,4.6,-,N/A,,Clear,90,2012-10-18 06:55:00